Content
SEND FEEDBACK

Daily
Averages
Monthly
Summary
United States of America

MIAMI, NEW MEXICO


Home > North America > United States > New Mexico
Elevation: 6164 feet     Latitude: 36 21N     Longitude: 104 46W

WEATHER
 
SELECT A DAY
Number of Records: 168,022;   Date Range: 10/2/07 - 7/27/14
 
SHARE

PRINT THIS DATA

[ ← Previous Day ]
WEATHER ALMANAC - JANUARY 2, 2013
[ Next Day → ]
[ °C ]   °F
Weather ElementAverageHighLow
Temperature-12.4 °F16 °F (4:35 pm)-27.6 °F (7:55 am)
Dewpoint-17.6 °F6.6 °F (4:35 pm)-34.4 °F (7:55 am)
Humidity77.7 %87 % (8:55 pm)65 % (4:55 pm)
Barometer30.12 in30.18 in (11:15 pm)30.03 in (1:15 pm)
Wind Speed1 mph10.4 mph (4:35 pm)
Weather ElementAverage
Visibility8 mi
Wind DirectionNNE (23.9 °)

Weather ElementTotal
Precipitation---
Heating Degree Days70.8 (Base 65)
Averaged from 54 records on January 2, 2013
WEATHER CONDITIONS BREAKOUT
WIND DIRECTION BREAKOUT
WEATHER BY HOUR - JANUARY 2, 2013
[ °C ]   °F
Local TimeTemperatureDewpointHumidityBarometerVisibilityWind DirectionWind SpeedGust SpeedPrecipitationEventsConditions
12:35 AM-12.8 °F-17.5 °F80 %30.12 in5.0 miCalmSnowLight Snow
12:55 AM-12.6 °F-17.1 °F80 %30.11 in5.0 miCalmSnowLight Snow
1:15 AM-15.7 °F-20.6 °F79 %30.11 in10.0 miCalmSnowLight Snow
1:35 AM-16.4 °F-21.5 °F78 %30.11 in10.0 miCalmSnowLight Snow
2:15 AM-19.7 °F-25.2 °F75 %30.11 in10.0 miCalmClear
2:35 AM-19.3 °F-24.3 °F78 %30.11 in10.0 miCalmClear
2:55 AM-17.3 °F-22.4 °F78 %30.11 in10.0 miCalmClear
3:15 AM-23.8 °F-29.4 °F75 %30.11 in10.0 miCalmClear
3:35 AM-22.7 °F-28.1 °F76 %30.10 in10.0 miCalmClear
3:55 AM-21.5 °F-26.9 °F76 %30.09 in10.0 miCalmSnowLight Snow
4:15 AM-25.4 °F-31.2 °F74 %30.09 in4.0 miCalmSnowLight Snow
4:35 AM-23.8 °F-29.2 °F76 %30.09 in0.8 miCalmSnowLight Snow
4:55 AM-21.6 °F-26.9 °F77 %30.09 in0.8 miCalmSnowLight Snow
5:15 AM-23.4 °F-29.2 °F74 %30.10 in0.5 miCalmSnowLight Snow
5:35 AM-25.2 °F-30.6 °F76 %30.10 in0.5 miCalmHaze
5:55 AM-24.0 °F-29.7 °F74 %30.10 in0.5 miCalmSnowLight Snow
6:15 AM-25.8 °F-31.9 °F73 %30.11 in3.0 miCalmHaze
6:35 AM-24.9 °F-31.2 °F72 %30.11 in10.0 miCalmScattered Clouds
6:55 AM-26.5 °F-32.6 °F73 %30.12 in1.2 miCalmHaze
7:15 AM-26.3 °F-32.4 °F73 %30.13 in2.5 miCalmHaze
7:35 AM-25.4 °F-31.4 °F74 %30.14 in5.0 miCalmHaze
7:55 AM-27.6 °F-34.4 °F70 %30.15 in5.0 miCalmHaze
8:15 AM-25.1 °F-30.6 °F75 %30.15 in3.0 miCalmHaze
8:35 AM-23.1 °F-29.6 °F72 %30.15 in2.5 miCalmHaze
9:15 AM-18.4 °F-23.8 °F76 %30.16 in10.0 miCalmClear
9:35 AM-14.6 °F-19.3 °F79 %30.16 in10.0 miCalmClear
10:15 AM-10.8 °F-15.2 °F81 %30.15 in10.0 miCalmClear
10:35 AM-8.9 °F-13.5 °F80 %30.14 in10.0 miCalmClear
10:55 AM-6.9 °F-11.4 °F81 %30.13 in10.0 miCalmClear
11:55 AM-4.5 °F-8.1 °F84 %30.08 in10.0 miCalmClear
12:35 PM-2.4 °F-6.5 °F82 %30.05 in10.0 miCalmClear
1:15 PM-1.3 °F-5.3 °F83 %30.03 in10.0 miNE (50°)3.5 mphClear
2:15 PM1.2 °F-2.4 °F85 %30.03 in10.0 miCalmClear
3:35 PM9.3 °F5.0 °F83 %30.04 in10.0 miCalmClear
4:35 PM16.0 °F6.6 °F67 %30.05 in10.0 miWest (260°)10.4 mphClear
4:55 PM14.0 °F4.1 °F65 %30.05 in10.0 miWSW (250°)9.2 mphClear
5:15 PM12.0 °F3.6 °F69 %30.06 in10.0 miSW (220°)5.8 mphClear
5:55 PM1.4 °F-3.6 °F79 %30.08 in10.0 miCalmClear
6:15 PM6.1 °F0.9 °F79 %30.09 in10.0 miCalmClear
6:55 PM3.4 °F-3.3 °F74 %30.12 in10.0 miSSE (150°)8.1 mphClear
7:15 PM3.0 °F-5.6 °F67 %30.12 in10.0 miSouth (170°)5.8 mphClear
7:55 PM1.4 °F-3.1 °F81 %30.13 in10.0 miCalmClear
8:15 PM-3.3 °F-6.7 °F85 %30.13 in10.0 miCalmClear
8:35 PM-6.0 °F-9.8 °F84 %30.14 in10.0 miCalmClear
8:55 PM-3.1 °F-6.2 °F87 %30.14 in10.0 miENE (60°)6.9 mphClear
9:15 PM-9.6 °F-13.4 °F83 %30.15 in10.0 miCalmClear
9:35 PM-9.2 °F-12.1 °F87 %30.15 in10.0 miCalmClear
9:55 PM-12.8 °F-17.1 °F81 %30.16 in10.0 miCalmClear
10:15 PM-14.4 °F-18.0 °F84 %30.16 in10.0 miCalmClear
10:35 PM-13.0 °F-17.0 °F82 %30.16 in10.0 miCalmClear
10:55 PM-15.0 °F-19.1 °F82 %30.17 in10.0 miCalmClear
11:15 PM-19.7 °F-24.3 °F79 %30.18 in10.0 miCalmClear
11:35 PM-17.1 °F-21.8 °F79 %30.17 in10.0 miSE (130°)3.5 mphClear
11:55 PM-17.9 °F-22.4 °F80 %30.18 in10.0 miCalmClear
Hourly data recorded from KAXX, located miles away from Miami, New Mexico







STORIES FROM OUR PARTNERS